Ponca City, OK

4:00 PM CDT on August 22, 2017 (GMT -0500)
Ponca City Municipal

Weather History for KPNC - November, 2013

Change the Weather History Date:

Friday, November 22, 2013

  Actual Average Record
Temperature  
Mean Temperature 28 °F -  
Max Temperature 32 °F 60 °F 77 °F (2012)
Min Temperature 26 °F 37 °F 21 °F (2007)
Degree Days  
Heating Degree Days 37    
Moisture  
Dew Point 20 °F    
Average Humidity 70    
Maximum Humidity 75    
Minimum Humidity 61    
Precipitation  
Precipitation 0.00 in - - ()
Sea Level Pressure  
Sea Level Pressure 30.58 in    
Wind  
Wind Speed 19 mph (North)    
Max Wind Speed 25 mph    
Max Gust Speed 32 mph    
Visibility 10 miles    
Events Rain    
Averages and records for this station are not official NWS values.
T = Trace of Precipitation, MM = Missing Value Source: NWS Daily Summary

Daily Weather History Graph

Daily Weather History Graph

Search for Another Location

Airport or City:

Trip Planner

Search our weather history database for the weather conditions in past years. The results will help you decide how hot, cold, wet, or windy it might be!

Date:

Astronomy

Nov. 22, 2013 Rise Set
Actual Time 7:13 AM CST 5:15 PM CST
Civil Twilight 6:45 AM CST 5:43 PM CST
Nautical Twilight 6:14 AM CST 6:14 PM CST
Astronomical Twilight 5:43 AM CST 6:45 PM CST
Moon 9:46 PM CST 10:59 AM CST
Length of Visible Light 10h 57m
Length of Day
10h 01m
Waning Gibbous, 78% of the Moon is Illuminated
Nov 22
Waning Gibbous
Nov 25
Last Quarter
Dec 2
New
Dec 9
First Quarter
Dec 17
Full

Hourly Weather History & Observations

Time (CST) Temp. Windchill Dew Point Humidity Pressure Visibility Wind Dir Wind Speed Gust Speed Precip Events Conditions
12:53 AM 28.9 °F 15.4 °F 21.9 °F 75% 30.49 in 10.0 mi North 21.9 mph 28.8 mph N/A   Overcast
1:53 AM 28.9 °F 17.3 °F 21.9 °F 75% 30.51 in 10.0 mi North 16.1 mph 25.3 mph N/A   Overcast
2:53 AM 28.0 °F 15.3 °F 19.9 °F 72% 30.51 in 10.0 mi North 18.4 mph 32.2 mph N/A   Overcast
3:53 AM 27.0 °F 12.8 °F 19.9 °F 75% 30.52 in 10.0 mi North 21.9 mph 29.9 mph N/A   Overcast
4:53 AM 27.0 °F 11.9 °F 19.0 °F 72% 30.55 in 10.0 mi North 25.3 mph 31.1 mph N/A   Overcast
5:16 AM 26.6 °F 13.1 °F 19.4 °F 74% 30.52 in 10.0 mi North 19.6 mph - N/A   Overcast
5:32 AM 26.6 °F 12.4 °F 19.4 °F 74% 30.53 in 10.0 mi North 21.9 mph 27.6 mph N/A   Overcast
5:53 AM 27.0 °F 13.5 °F 19.0 °F 72% 30.57 in 10.0 mi North 19.6 mph 26.5 mph N/A   Overcast
6:53 AM 26.1 °F 14.0 °F 19.0 °F 75% 30.59 in 10.0 mi North 15.0 mph 23.0 mph N/A   Overcast
7:53 AM 26.1 °F 13.6 °F 19.0 °F 75% 30.61 in 10.0 mi North 16.1 mph 24.2 mph N/A   Overcast
8:53 AM 27.0 °F 13.9 °F 19.0 °F 72% 30.63 in 10.0 mi North 18.4 mph 23.0 mph N/A   Overcast
9:53 AM 28.0 °F 15.3 °F 19.9 °F 72% 30.64 in 10.0 mi North 18.4 mph - N/A   Overcast
10:53 AM 30.0 °F 18.3 °F 21.0 °F 69% 30.63 in 10.0 mi North 17.3 mph - N/A   Overcast
11:23 AM 30.2 °F 18.5 °F 21.2 °F 69% 30.61 in 10.0 mi North 17.3 mph - N/A   Overcast
11:53 AM 30.9 °F 19.4 °F 21.0 °F 67% 30.62 in 10.0 mi North 17.3 mph 23.0 mph N/A   Overcast
12:16 PM 30.2 °F 18.9 °F 21.2 °F 69% 30.59 in 10.0 mi North 16.1 mph 24.2 mph N/A   Overcast
12:53 PM 28.9 °F 16.9 °F 19.9 °F 69% 30.61 in 10.0 mi North 17.3 mph - N/A   Overcast
1:50 PM 28.4 °F 17.5 °F 21.2 °F 74% 30.59 in 10.0 mi North 13.8 mph - N/A   Overcast
1:53 PM 28.9 °F 16.9 °F 21.0 °F 72% 30.61 in 10.0 mi North 17.3 mph - N/A   Overcast
2:25 PM 28.4 °F 14.7 °F 21.2 °F 74% 30.56 in 10.0 mi North 21.9 mph - 0.00 in Rain Light Freezing Rain
2:53 PM 28.9 °F 16.9 °F 21.0 °F 72% 30.60 in 10.0 mi North 17.3 mph - 0.00 in   Overcast
3:53 PM 30.0 °F 18.3 °F 19.9 °F 66% 30.60 in 10.0 mi North 17.3 mph - N/A   Overcast
4:53 PM 30.0 °F 17.2 °F 21.0 °F 69% 30.60 in 10.0 mi North 20.7 mph - 0.00 in   Overcast
5:53 PM 28.9 °F 18.2 °F 19.9 °F 69% 30.60 in 10.0 mi North 13.8 mph 21.9 mph N/A   Mostly Cloudy
6:53 PM 30.0 °F 19.1 °F 21.0 °F 69% 30.58 in 10.0 mi North 15.0 mph - N/A   Overcast
7:53 PM 30.9 °F 21.7 °F 21.0 °F 67% 30.59 in 10.0 mi North 11.5 mph - N/A   Overcast
8:53 PM 30.9 °F 20.7 °F 21.0 °F 67% 30.60 in 10.0 mi North 13.8 mph - N/A   Overcast
9:53 PM 30.9 °F 19.4 °F 19.9 °F 64% 30.61 in 10.0 mi North 17.3 mph - N/A   Overcast
10:53 PM 30.9 °F 19.8 °F 19.9 °F 64% 30.61 in 10.0 mi North 16.1 mph - N/A   Overcast
11:53 PM 32.0 °F 23.0 °F 19.9 °F 61% 30.63 in 10.0 mi North 11.5 mph - N/A   Overcast